Other Public Products
Issued by NWS Grand Forks, ND

Home | Current Version | Previous Version | Graphics & Text | Print | Product List | Glossary On
Versions: 1 2 3 4 5 6 7 8 9 10 11 12 13 14 15 16 17 18 19 20 21 22 23 24 25 26 27 28 29 30 31 32 33 34 35 36 37 38 39 40 41 42 43 44 45 46 47 48 49 50
000
FPUS83 KFGF 041810
OPUFGF
PRAIRIE TO PINES WEATHER ROUNDUP
NATIONAL WEATHER SERVICE EASTERN NORTH DAKOTA/GRAND FORKS ND
100 PM CDT MON MAY 04 2015

 **SATELLITE DATA USED TO AUGMENT SKY COVER AT AUTOMATED STATIONS**
 *****  WEATHER ACROSS EASTERN NORTH DAKOTA  *****

CITY           SKY/WX    TMP DP  RH WIND       PRES   REMARKS
GRAND FORKS    MOSUNNY   65  29  25 CALM      30.22F
6HR MIN TEMP:  34; 6HR MAX TEMP:  65;

GRAND FORKS AF MOSUNNY   65  29  25 SW6       30.22F
GRAND CITY NWS   N/A     64 N/A N/A NW3         N/A
BUXTON         NOT AVBL
DEVILS LAKE    SUNNY     63  25  23 S6        30.22S
6HR MIN TEMP:  34; 6HR MAX TEMP:  63;

FARGO          PTSUNNY   64  29  26 CALM      30.22F
6HR MIN TEMP:  40; 6HR MAX TEMP:  65;

WAHPETON ARPT  MOCLDY    64  28  25 N7        30.23S
$$

 *****  WEATHER ACROSS CENTRAL AND WESTERN NORTH DAKOTA  *****

CITY           SKY/WX    TMP DP  RH WIND       PRES   REMARKS
JAMESTOWN      MOSUNNY   63  25  23 VRB3G16   30.22F
6HR MIN TEMP:  32; 6HR MAX TEMP:  64;

BISMARCK       MOSUNNY   66  24  20 SW6       30.21F
6HR MIN TEMP:  34; 6HR MAX TEMP:  66;

MINOT          SUNNY     66  22  18 SE14G20   30.17F
6HR MIN TEMP:  35; 6HR MAX TEMP:  66;

MINOT AFB      SUNNY     67  25  19 SW10      30.17F
6HR MIN TEMP:  30; 6HR MAX TEMP:  69;

GARRISON         N/A     66  25  21 S13       30.18F
6HR MIN TEMP:  34; 6HR MAX TEMP:  66;

WILLISTON      SUNNY     69  26  20 S15       30.12F
6HR MIN TEMP:  32; 6HR MAX TEMP:  69;

DICKINSON      SUNNY     63  32  31 S22G30    30.15F
6HR MIN TEMP:  33; 6HR MAX TEMP:  63;

HETTINGER      PTSUNNY   55  35  47 S16G24    30.21F
6HR MIN TEMP:  39; 6HR MAX TEMP:  56;

$$

 *****  OTHER OBSERVATIONS NORTHEAST NORTH DAKOTA  *****

CITY           SKY/WX    TMP DP  RH WIND       PRES   REMARKS
WALHALLA       FAIR      64  28  25 W7G16     30.20F
LANGDON        FAIR      64  25  22 NW8G18    30.21F
CAVALIER       MOCLDY    63  28  27 W7        30.20F
GRAFTON        FAIR      64  30  27 SW10      30.22F
CANDO          FAIR      64  25  22 SW10      30.21F
FORT TOTTEN      N/A     64  26  23 NW5       29.95S
ROLLA          NOT AVBL
RUGBY          NOT AVBL
 ***** THE ABOVE OBSERVATIONS ARE NON NWS ARE NOT QUALITY
        CONTROLLED AND MAY MIS-REPORT RAIN FOR SNOW...
$$

 *****  OTHER OBSERVATIONS SOUTHEAST NORTH DAKOTA *****

CITY           SKY/WX    TMP DP  RH WIND       PRES   REMARKS
COOPERSTOWN    NOT AVBL
VALLEY CITY    FAIR      63  28  27 E6        30.23F
OAKES            N/A     63  27  25 CALM      30.23F
GWINNER        CLEAR     64  30  27 S3        30.23F
SHEYENNE NWR     N/A     67  30  25 CALM      29.95S
BUFFALO        NOT AVBL
WYNDMERE       NOT AVBL
 ***** THE ABOVE OBSERVATIONS ARE NON NWS ARE NOT QUALITY
       CONTROLLED AND MAY MIS-REPORT RAIN FOR SNOW...
$$

  *****  WEATHER ACROSS NORTHERN MINNESOTA  *****

CITY           SKY/WX    TMP DP  RH WIND       PRES   REMARKS
FLAG ISLAND    MOSUNNY   48  36  61 SE7       30.21F
WARROAD        MOSUNNY   57  34  41 E12       30.22F
ROSEAU         MOSUNNY   63  28  27 W6G16     30.22S
HALLOCK        PTSUNNY   63  27  25 NW6       30.21S
THF RVR FALLS  MOSUNNY   61  28  29 CALM      30.23F
6HR MIN TEMP:  39; 6HR MAX TEMP:  61;

HALSTAD        NOT AVBL
FOSSTON        SUNNY     64  27  24 CALM      30.24S
BAUDETTE       SUNNY     60  29  30 CALM      30.23S
6HR MIN TEMP:  37; 6HR MAX TEMP:  60;

WASKISH        SUNNY     59  34  38 CALM      30.24S
CROOKSTON      SUNNY     63  30  29 NE3       30.23S
$$
  *****  WEATHER ACROSS CENTRAL AND WEST MINNESOTA  *****

CITY           SKY/WX    TMP DP  RH WIND       PRES   REMARKS
BEMIDJI        SUNNY     60  27  29 SW5       30.24S
PARK RAPIDS    PTSUNNY   62  31  31 VRB6      30.23S
6HR MIN TEMP:  39; 6HR MAX TEMP:  62;

WADENA         PTSUNNY   61  36  39 NE9       30.23S
DETROIT LAKES  PTSUNNY   61  32  33 NE6       30.24F
MOORHEAD       PTSUNNY   63  27  25 NW6       30.23F
FERGUS FALLS   PTSUNNY   63  34  34 CALM      30.23F
ELBOW LAKE     FAIR      63  30  29 NE6       30.21S
6HR MIN TEMP:  46; 6HR MAX TEMP:  65;

MORRIS MN      SUNNY     70  27  19 NW6       30.20S
STAPLES        PTSUNNY   61  30  31 N8        30.22F
WHEATON        MOSUNNY   63  28  27 N3        30.23S
$$
  *****  WEATHER ELSEWHERE ACROSS MINNESOTA  *****

CITY           SKY/WX    TMP DP  RH WIND       PRES   REMARKS
DULUTH         PTSUNNY   63  23  21 MISG      30.19S
6HR MIN TEMP:  45; 6HR MAX TEMP:  63;

INTRNTL FALLS  MOSUNNY   59  29  31 VRB5      30.21S
6HR MIN TEMP:  38; 6HR MAX TEMP:  60;

ELY            SUNNY     59  23  25 NW9       30.19S
CLOQUET        PTSUNNY   63  14  15 NW12G20   30.20S
BRAINERD       PTSUNNY   62  32  32 N8G20     30.23S
6HR MIN TEMP:  39; 6HR MAX TEMP:  62;

HIBBING        SUNNY     63  20  19 NW13G18   30.21S
6HR MIN TEMP:  37; 6HR MAX TEMP:  63;

ALEXANDRIA     MOSUNNY   63  30  28 MISG      30.23S
6HR MIN TEMP:  47; 6HR MAX TEMP:  64;

SAINT CLOUD    SUNNY     67  31  26 VRB7      30.20S
6HR MIN TEMP:  41; 6HR MAX TEMP:  67;

MINNEAPOLIS    MOSUNNY   67  31  26 NE12G18   30.19S
6HR MIN TEMP:  52; 6HR MAX TEMP:  67;

$$

  *****  WEATHER ACROSS SOUTH DAKOTA  *****

CITY           SKY/WX    TMP DP  RH WIND       PRES   REMARKS
SIOUX FALLS    PTSUNNY   70  30  22 E16       30.16F
6HR MIN TEMP:  47; 6HR MAX TEMP:  70;

BROOKINGS      SUNNY     64  28  25 E9G16     30.20F
WATERTOWN      MOSUNNY   66  26  22 NE10      30.20F
6HR MIN TEMP:  40; 6HR MAX TEMP:  67;

HURON          PTSUNNY   70  23  17 NE13      30.18F
6HR MIN TEMP:  34; 6HR MAX TEMP:  71;

SISSETON         N/A     67  24  19 VRB3      30.21S
ABERDEEN       CLOUDY    67  22  18 N7        30.21F
6HR MIN TEMP:  31; 6HR MAX TEMP:  68;

MITCHELL       MOSUNNY   71  26  18 E10       30.16F
PIERRE         CLOUDY    63  26  24 E7        30.21S
6HR MIN TEMP:  42; 6HR MAX TEMP:  64;

MOBRIDGE       CLOUDY    63  28  26 SW6       30.20F
RAPID CITY     CLOUDY    48  39  71 S5        30.23R
6HR MIN TEMP:  44; 6HR MAX TEMP:  49; 6HR PCP:  0.19;

$$

  *****  SOME WEATHER IN NEARBY STATES *****

CITY           SKY/WX    TMP DP  RH WIND       PRES   REMARKS
GLASGOW MT     SUNNY     68  36  30 S18G30    30.01F
6HR MIN TEMP:  39; 6HR MAX TEMP:  68; 6HR PCP: TRACE;

GREAT FALLS MT SUNNY     64  37  36 CALM      29.91F
6HR MIN TEMP:  33; 6HR MAX TEMP:  65;

CHEYENNE WY    LGT RAIN  51  41  68 S14       30.15S
6HR MIN TEMP:  45; 6HR MAX TEMP:  52; 6HR PCP: TRACE;

SCOTTSBLUFF NE CLOUDY    53  35  50 E15       30.17S
6HR MIN TEMP:  48; 6HR MAX TEMP:  54; 6HR PCP:  0.05;

OMAHA NE       LGT RAIN  65  56  72 NE7       30.08R
6HR MIN TEMP:  58; 6HR MAX TEMP:  67; 6HR PCP: TRACE;

DES MOINES IA  CLOUDY    70  58  65 NE9       30.10R
6HR MIN TEMP:  62; 6HR MAX TEMP:  71;

DAVENPORT IA   PTSUNNY   69  61  75 NE9       30.12S
6HR MIN TEMP:  60; 6HR MAX TEMP:  71;

CHICAGO IL     CLOUDY    70  57  63 W3        30.10R
6HR MIN TEMP:  59; 6HR MAX TEMP:  70;

EAU CLAIRE WI  SUNNY     67  31  26 NW8       30.17S
6HR MIN TEMP:  53; 6HR MAX TEMP:  68;

LA CROSSE WI   PTSUNNY   72  38  29 VRB7      30.14S
6HR MIN TEMP:  58; 6HR MAX TEMP:  73;

$$

  *****  SOME NATIONAL WEATHER *****

CITY           SKY/WX    TMP DP  RH WIND       PRES   REMARKS


USA.gov is the U.S. government's official web portal to all federal, state and local government web resources and services.